2022-155E (54255 NORAD) Tracking and Keplerian Element Data

This shows tracking and keplerian element data for the satellite.

Feedback or suggestion? Click here.




ElementValue
Catalog54255
Name2022-155E
Epoch Orbit75
Epoch Day325.23009588
Epoch Year2022
RAAN69.9197
Inclination97.5373
Eccentricity0.0012645
Argument of Perigee272.1427
Mean Anonmoly179.2158
Mean Motion15.09342581
Decay Rate4.351E-05
L11 54255U 22155E 22325.23009588 .00004351 00000+0 27618-3 0 9994
L22 54255 97.5373 69.9197 0012645 272.1427 179.2158 15.09342581 754



Live tracking and technical data element details for 2022-155E (NORAD 54255). 2022-155E can be tracked NOW for your location showing map with azimuth and elevation plus other details from your city location.







IsCatalogInMostPopularTable: catalog: 54255, numindb: 6
Update: records affected: 1



GetName: 54255 2022-155E

Hit Count: updated at: Sun, 04 Dec 2022 22:34:25 GMT